Weather in Chuvashskaya Reshetka

Russia / Ulyanovsk Oblast     53°41′38″N   47°01′30″E
temp.,
°C
wind,
m/s
gust,
m/s
humid.,
%
clouds,
%
prec.,
mm/h
press.,
hPa
HPBL,
m
12 april, mon
mon1201:00+4nne4899100 0.0 1032219
04:00+4ne41099100 0.0 1033237
07:00+3ne49100100 0.0 1033261
10:00+5ne51099100 0.0 1034306
13:00+8ene5796100 0.0 1034318
16:00+12e578266 0.0 1034476
19:00+10ene379579 0.0 1034166
22:00+8e359562 0.0 103484
13 april, tue
tue1301:00+7e329297 0.0 103427
04:00+7ese228958 0.0 103415
07:00+7se228798 0.0 103529
10:00+13se486219 0.0 1034369
13:00+16sse574472 0.0 1033832
16:00+17sse57356 0.0 10321064
19:00+14se33565 0.0 103130
22:00+10se226355 0.0 103112
14 april, wed
wed1401:00+8se226815 0.0 103111
04:00+7ese22735 0.0 103011
07:00+6ese22735 0.0 103027
10:00+12se47595 0.0 1028427
13:00+16se57515 0.0 1027935
16:00+17se57475 0.0 10251212
19:00+14se35650 0.0 102490
22:00+10se22815 0.0 102414
15 april, thu
thu1501:00+9se22850 0.0 102312
04:00+8ese22870 0.0 102212
07:00+8ese22902 0.0 102218
10:00+14se34650 0.0 1021458
13:00+17sse34461 0.0 10191396
16:00+18s33434 0.0 10181805
19:00+15ese225430 0.0 101719
22:00+11se22662 0.0 101810
16 april, fri
fri1601:00+10se11701 0.0 101710
04:00+9ene11761 0.0 101710
07:00+9ne11754 0.0 101710
10:00+15ene225820 0.0 1016385
13:00+18ne324612 0.1 10161826
16:00+16nne3554100 0.1 1016172
19:00+13ne5969100 0.0 1017398
22:00+10ne61182100 0.1 1019621